• en France
  • Liste des pays
  • À 7 jours
  • Température de l'eau
  • Carte satellitaire
  • Carte météo
  • Widgets météo
  • user-avatar
    Se connecter

    Météo par heure à Encamp

    Ce jour, 24 Septembre, Lundi

    Heure Température Précipitation Vent Pression Humidité
    00:00 +11°C° 0 mm 3 m/s 630 mmHg 78%
    01:00 +11°C° 0 mm 3 m/s 630 mmHg 78%
    02:00 +11°C° 0 mm 3 m/s 630 mmHg 78%
    03:00 +12°C° 0 mm 2 m/s 629 mmHg 77%
    04:00 +12°C° 0 mm 2 m/s 629 mmHg 80%
    05:00 +12°C° 0 mm 2 m/s 630 mmHg 82%
    06:00 +10°C° 0 mm 3 m/s 630 mmHg 85%
    07:00 +11°C° 0 mm 3 m/s 630 mmHg 81%
    08:00 +13°C° 0 mm 2 m/s 631 mmHg 78%
    09:00 +14°C° 0 mm 2 m/s 631 mmHg 75%
    10:00 +14°C° 0 mm 3 m/s 632 mmHg 70%
    11:00 +16°C° 0 mm 3 m/s 632 mmHg 65%
    12:00 +16°C° 0 mm 3 m/s 632 mmHg 61%
    13:00 +17°C° 0 mm 3 m/s 632 mmHg 59%
    14:00 +17°C° 0 mm 3 m/s 632 mmHg 56%
    15:00 +17°C° 0 mm 3 m/s 631 mmHg 54%
    16:00 +14°C° 0.1 mm 3 m/s 631 mmHg 60%
    17:00 +12°C° 0.1 mm 3 m/s 630 mmHg 67%
    18:00 +10°C° 0.1 mm 3 m/s 630 mmHg 73%
    19:00 +9°C° 0.1 mm 3 m/s 630 mmHg 72%
    20:00 +8°C° 0.1 mm 2 m/s 630 mmHg 71%
    21:00 +7°C° 0.1 mm 2 m/s 630 mmHg 69%
    22:00 +7°C° 0 mm 2 m/s 630 mmHg 67%
    23:00 +7°C° 0 mm 2 m/s 630 mmHg 65%

    Demain, 25 Septembre, Mardi

    Heure Température Précipitation Vent Pression Humidité
    00:00 +7°C° 0 mm 2 m/s 630 mmHg 63%
    01:00 +6°C° 0 mm 2 m/s 630 mmHg 63%
    02:00 +7°C° 0 mm 1 m/s 630 mmHg 64%
    03:00 +7°C° 0 mm 1 m/s 630 mmHg 64%
    04:00 +7°C° 0 mm 1 m/s 630 mmHg 66%
    05:00 +7°C° 0 mm 1 m/s 630 mmHg 67%
    06:00 +6°C° 0 mm 1 m/s 629 mmHg 69%
    07:00 +9°C° 0 mm 1 m/s 631 mmHg 63%
    08:00 +11°C° 0 mm 1 m/s 632 mmHg 58%
    09:00 +14°C° 0 mm 2 m/s 633 mmHg 53%
    10:00 +14°C° 0 mm 2 m/s 633 mmHg 52%
    11:00 +15°C° 0 mm 2 m/s 634 mmHg 50%
    12:00 +16°C° 0 mm 2 m/s 634 mmHg 49%
    13:00 +16°C° 0.1 mm 2 m/s 633 mmHg 53%
    14:00 +15°C° 0.1 mm 2 m/s 633 mmHg 57%
    15:00 +15°C° 0.1 mm 2 m/s 633 mmHg 60%
    16:00 +13°C° 0 mm 2 m/s 632 mmHg 66%
    17:00 +12°C° 0 mm 1 m/s 632 mmHg 72%
    18:00 +11°C° 0 mm 1 m/s 631 mmHg 78%
    19:00 +10°C° 0 mm 1 m/s 632 mmHg 81%
    20:00 +9°C° 0 mm 1 m/s 632 mmHg 84%
    21:00 +9°C° 0 mm 1 m/s 632 mmHg 87%
    22:00 +9°C° 0 mm 1 m/s 632 mmHg 87%
    23:00 +8°C° 0 mm 1 m/s 632 mmHg 88%

    Après-demain, 26 Septembre, Mercredi

    Heure Température Précipitation Vent Pression Humidité
    00:00 +7°C° 0 mm 2 m/s 632 mmHg 88%
    01:00 +7°C° 0 mm 2 m/s 632 mmHg 87%
    02:00 +7°C° 0 mm 2 m/s 632 mmHg 87%
    03:00 +7°C° 0 mm 2 m/s 632 mmHg 86%
    04:00 +7°C° 0 mm 2 m/s 632 mmHg 85%
    05:00 +7°C° 0 mm 2 m/s 632 mmHg 85%
    06:00 +7°C° 0 mm 2 m/s 632 mmHg 84%
    07:00 +9°C° 0 mm 2 m/s 633 mmHg 76%
    08:00 +12°C° 0 mm 2 m/s 634 mmHg 68%
    09:00 +13°C° 0 mm 3 m/s 636 mmHg 59%
    10:00 +16°C° 0 mm 3 m/s 636 mmHg 55%
    11:00 +17°C° 0 mm 3 m/s 636 mmHg 50%
    12:00 +18°C° 0 mm 3 m/s 637 mmHg 45%
    13:00 +18°C° 0 mm 3 m/s 636 mmHg 46%
    14:00 +18°C° 0 mm 3 m/s 636 mmHg 47%
    15:00 +18°C° 0 mm 3 m/s 636 mmHg 47%
    16:00 +16°C° 0 mm 3 m/s 635 mmHg 56%
    17:00 +13°C° 0 mm 2 m/s 634 mmHg 64%
    18:00 +10°C° 0 mm 2 m/s 634 mmHg 73%
    19:00 +10°C° 0 mm 2 m/s 634 mmHg 76%
    20:00 +10°C° 0 mm 1 m/s 634 mmHg 78%
    21:00 +9°C° 0 mm 1 m/s 634 mmHg 81%
    22:00 +9°C° 0 mm 1 m/s 634 mmHg 81%
    23:00 +9°C° 0 mm 1 m/s 633 mmHg 81%

    27 Septembre, Jeudi

    Heure Température Précipitation Vent Pression Humidité
    00:00 +9°C° 0 mm 1 m/s 633 mmHg 81%
    01:00 +8°C° 0 mm 1 m/s 633 mmHg 80%
    02:00 +8°C° 0 mm 1 m/s 633 mmHg 80%
    03:00 +8°C° 0 mm 1 m/s 633 mmHg 79%
    04:00 +8°C° 0 mm 1 m/s 633 mmHg 78%
    05:00 +8°C° 0 mm 1 m/s 632 mmHg 77%
    06:00 +8°C° 0 mm 1 m/s 632 mmHg 76%
    07:00 +11°C° 0 mm 1 m/s 634 mmHg 66%
    08:00 +14°C° 0 mm 1 m/s 635 mmHg 57%
    09:00 +16°C° 0 mm 1 m/s 636 mmHg 47%
    10:00 +18°C° 0 mm 2 m/s 636 mmHg 44%
    11:00 +19°C° 0 mm 2 m/s 636 mmHg 41%
    12:00 +20°C° 0 mm 2 m/s 637 mmHg 39%
    13:00 +20°C° 0 mm 2 m/s 636 mmHg 40%
    14:00 +20°C° 0 mm 2 m/s 636 mmHg 41%
    15:00 +20°C° 0 mm 2 m/s 635 mmHg 42%
    16:00 +18°C° 0 mm 1 m/s 634 mmHg 53%
    17:00 +15°C° 0 mm 1 m/s 633 mmHg 63%
    18:00 +12°C° 0 mm 1 m/s 632 mmHg 74%
    19:00 +12°C° 0 mm 1 m/s 632 mmHg 76%
    20:00 +11°C° 0 mm 1 m/s 632 mmHg 77%
    21:00 +11°C° 0 mm 1 m/s 632 mmHg 79%
    22:00 +11°C° 0 mm 1 m/s 631 mmHg 78%
    23:00 +11°C° 0 mm 1 m/s 631 mmHg 77%

    28 Septembre, Vendredi

    Heure Température Précipitation Vent Pression Humidité
    00:00 +10°C° 0 mm 1 m/s 631 mmHg 77%
    01:00 +10°C° 0 mm 1 m/s 630 mmHg 76%
    02:00 +10°C° 0 mm 1 m/s 630 mmHg 75%
    03:00 +10°C° 0 mm 1 m/s 629 mmHg 75%
    04:00 +10°C° 0 mm 1 m/s 629 mmHg 73%
    05:00 +10°C° 0 mm 1 m/s 629 mmHg 71%
    06:00 +8°C° 0 mm 2 m/s 629 mmHg 69%
    07:00 +12°C° 0 mm 1 m/s 630 mmHg 61%
    08:00 +15°C° 0 mm 1 m/s 631 mmHg 52%
    09:00 +19°C° 0 mm 1 m/s 632 mmHg 43%
    10:00 +20°C° 0 mm 1 m/s 632 mmHg 41%
    11:00 +21°C° 0 mm 1 m/s 632 mmHg 39%
    12:00 +22°C° 0 mm 1 m/s 632 mmHg 37%
    13:00 +22°C° 0 mm 1 m/s 632 mmHg 38%
    14:00 +22°C° 0 mm 1 m/s 631 mmHg 40%
    15:00 +21°C° 0 mm 2 m/s 630 mmHg 41%
    16:00 +19°C° 0 mm 1 m/s 630 mmHg 49%
    17:00 +16°C° 0 mm 1 m/s 629 mmHg 57%
    18:00 +14°C° 0 mm 1 m/s 628 mmHg 66%
    19:00 +13°C° 0 mm 1 m/s 628 mmHg 69%
    20:00 +13°C° 0 mm 1 m/s 628 mmHg 72%
    21:00 +12°C° 0 mm 1 m/s 628 mmHg 75%
    22:00 +12°C° 0 mm 1 m/s 627 mmHg 76%
    23:00 +11°C° 0 mm 1 m/s 627 mmHg 76%

    29 Septembre, Samedi

    Heure Température Précipitation Vent Pression Humidité
    00:00 +11°C° 0 mm 1 m/s 627 mmHg 77%
    01:00 +11°C° 0 mm 1 m/s 627 mmHg 78%
    02:00 +11°C° 0 mm 1 m/s 626 mmHg 78%
    03:00 +10°C° 0 mm 1 m/s 626 mmHg 79%
    04:00 +10°C° 0 mm 1 m/s 626 mmHg 79%
    05:00 +10°C° 0 mm 1 m/s 626 mmHg 80%
    06:00 +10°C° 0 mm 1 m/s 626 mmHg 80%
    07:00 +13°C° 0 mm 1 m/s 627 mmHg 70%
    08:00 +15°C° 0 mm 1 m/s 628 mmHg 60%
    09:00 +17°C° 0 mm 0 m/s 629 mmHg 50%
    10:00 +20°C° 0 mm 1 m/s 630 mmHg 47%
    11:00 +21°C° 0 mm 1 m/s 630 mmHg 44%
    12:00 +22°C° 0 mm 1 m/s 630 mmHg 41%
    13:00 +21°C° 0.1 mm 1 m/s 629 mmHg 45%
    14:00 +20°C° 0.1 mm 1 m/s 629 mmHg 49%
    15:00 +19°C° 0.1 mm 1 m/s 628 mmHg 53%
    16:00 +18°C° 0.1 mm 1 m/s 627 mmHg 58%
    17:00 +15°C° 0.1 mm 1 m/s 627 mmHg 63%
    18:00 +14°C° 0.1 mm 1 m/s 627 mmHg 68%
    19:00 +13°C° 0.1 mm 1 m/s 627 mmHg 70%
    20:00 +13°C° 0.1 mm 1 m/s 627 mmHg 72%
    21:00 +12°C° 0.1 mm 1 m/s 627 mmHg 74%
    22:00 +12°C° 0.1 mm 1 m/s 626 mmHg 75%
    23:00 +11°C° 0.1 mm 1 m/s 626 mmHg 77%
    Voir plus